Location: Unspecified
(0.0000°N, 0.0000°E)
Time: 14:44:01
(UTC+00:00)

Envisat - Pass Details

Date: 24 April 2019
Orbit: 764 x 766 km, 98.2° (Epoch: 21 May)

Event Time Altitude Azimuth Distance (km) Brightness Sun altitude
Rises 19:40:11 0° 190° (S) 3,231 6.2 -24.8°
Reaches altitude 10° 19:42:48 10° 202° (SSW) 2,303 5.5 -25.4°
Maximum altitude 19:47:00 26° 258° (WSW) 1,462 5.0 -26.5°
Drops below altitude 10° 19:51:11 10° 314° (NW) 2,295 6.2 -27.5°
Sets 19:53:49 0° 326° (NW) 3,218 6.9 -28.1°
